THORAD AGENA D DEB, 4857

Orbit data source: Space-Track

THORAD AGENA D DEB, 4857 is space debris in SSO originally from a launch on Wed, 08 Apr 1970 UTC launched from the Air Force Western Test Range (AFWTR). Debris objects in space refer to the collection of defunct objects orbiting the Earth. Examples of debris include non-operational satellites, rocket bodies, and fragments generated from explosions, collisions, or faulty payload assembly.

Loading next visibility...
Identifier
4857, 1970-025EM
Orbit
SSO
Country
Flag of USUS
Related business
Manufacturer
Unknown
Mission
Spacecraft
Bus & Motor
Unknown
Mass
Unknown
Launch date (UTC)
1970-04-08 (56 years ago)
Launch vehicle
Unknown
Launch site
Air Force Western Test Range (AFWTR)
Object type
Payload
Rocket body
Debris
Shape & HBR
Unknown shape, 0.1 m
Radar Cross Section
Small (<0.1 m²)

Expand to show TLE details & history
Last TLE update: 21 hours ago

TLE from 21 hours ago
0 THORAD AGENA D DEB
1 04857U 70025EM  25346.11731936  .00005591  00000-0  22156-2 0  9997
2 04857  99.7496 224.9319 0045230 275.5417  84.0603 14.28763321796230
Epoch: 2025-12-12T02:48Z
TLE epoch observation values (Epoch: 2025-12-12T02:48:56.392Z)
Latitude
-0.00004°
Longitude
101.63339°
Altitude
795.545 km
Speed
7.458 km/s
True Right ascension
14h 59m 43s
True Declination
0° 00' 00"
Sunlit
Object was in daylight at epoch
Visualization orbit readout
Latitude
Unknown
Longitude
Unknown
Altitude
Unknown
Speed
Unknown
Apparent Right ascension
Unknown
Apparent Declination
Unknown
Sunlit
N/A
Visualization observer readout
Local Sidereal Time
22:19:35
Azimuth
Unknown
Elevation
Unknown
Doppler factor
Unknown
Orbital elements
Apogee altitude
825.503 km
Perigee altitude
760.632 km
Semi-major axis
7,171.204 km
Eccentricity
0.00452
Inclination
99.7496°
RAAN
224.9319°
Arg. of periapsis
275.5417°
True anomaly
84.57611°
Mean anomaly
84.0603°
Eccentric anomaly
84.31818°
Mean motion
3.574 °/min
Orbital period
100.73 mins
BSTAR
0.0022156
Loading maneuver chart data...
Computing Atmospheric mass density...

Documentation

Showing up to 5 results
|